Home   Weather   Schwechat   Past weeks

Flag for Austria Past Weather in Schwechat, Lower Austria, Austria — Yesterday and Last 2 Weeks

Now
28 °F

Light freezing rain. Low clouds.


Feels Like: 21 °F
Forecast: 25 / 46 °F
Wind: 7 mph from Southeast

Location: Vienna Schwechat-Flughafen Airport

Current Time: Dec 8, 2016 at 3:20:20 pm

Latest Report: Dec 8, 2016 at 2:50 pm


Visibility: 2 mi

Pressure: 30.51 "Hg

Humidity: 100%

Dew Point: 28 °F

Location of SchwechatLocation

Past Weather in Schwechat — Graph

°F

Schwechat Temperature Yesterday

Maximum temperature yesterday: 39 °F (at 12:50 pm)
Minimum temperature yesterday: 23 °F (at 6:20 am)
Average temperature yesterday: 31 °F

High & Low Weather Summary for the Past Weeks

 TemperatureHumidityPressure
High50 °F (Nov 23, 1:20 pm)100% (Nov 24, 3:20 pm)30.69 "Hg (Nov 24, 3:20 pm)
Low19 °F (Dec 4, 3:50 am)36% (Nov 30, 12:50 pm)29.77 "Hg (Dec 2, 5:50 am)
Average36 °F80%30.25 "Hg
* Reported Nov 23 1:20 pm — Dec 8 1:50 pm, Schwechat, Weather by CustomWeather, © 2016

Note: Actual official high and low records may vary slightly from our data, if they occured in-between our weather recording intervals... More about our weather records

Advertising

Schwechat Weather History for the Previous 24 Hours

Scroll right to see more
 ConditionsComfort  
Time TempWeatherWind HumidityBarometerVisibility
1:50 pm
Thu, Dec 8
30 °FLight freezing rain. Low clouds.3 mph93%30.54 "Hg2 mi
1:20 pm30 °FLight freezing rain. Low clouds.6 mph93%30.54 "Hg2 mi
12:50 pm28 °FLight freezing rain. Low clouds.7 mph100%30.54 "Hg2 mi
12:20 pm30 °FLight freezing rain. Low clouds.7 mph93%30.57 "Hg2 mi
11:50 am28 °FLight freezing rain. Low clouds.6 mph100%30.57 "Hg2 mi
11:20 am28 °FLight freezing rain. Low clouds.3 mph100%30.57 "Hg1 mi
10:50 am28 °FLight freezing rain. Low clouds.6 mph93%30.60 "Hg1 mi
10:20 am28 °FLight freezing rain. Low clouds.6 mph100%30.60 "Hg1 mi
9:50 am28 °FChilly.7 mph93%30.60 "Hg1 mi
9:20 am28 °FChilly.5 mph93%30.60 "Hg1 mi
8:50 am28 °FLight freezing rain. Low clouds.3 mph93%30.60 "Hg1 mi
8:20 am28 °FLight freezing rain. Low clouds.3 mph93%30.60 "Hg1 mi
7:50 am28 °FLight freezing rain. Low clouds.5 mph93%30.60 "Hg2 mi
7:20 am28 °FLight freezing rain. Mostly cloudy.6 mph93%30.60 "Hg3 mi
6:50 am28 °FLight freezing rain. Passing clouds.9 mph93%30.60 "Hg2 mi
6:20 am28 °FLight freezing rain. Low clouds.8 mph93%30.60 "Hg1 mi
5:50 am28 °FLight freezing rain. Low clouds.8 mph100%30.60 "Hg1 mi
5:20 am28 °FLight freezing rain. Low clouds.6 mph93%30.60 "Hg1 mi
4:50 am28 °FLight freezing rain. Passing clouds.6 mph93%30.60 "Hg1 mi
4:20 am28 °FLight freezing rain. Passing clouds.5 mph93%30.60 "Hg2 mi
3:50 am28 °FLight freezing rain. Passing clouds.3 mph93%30.60 "Hg2 mi
3:20 am28 °FLight freezing rain. Low clouds.6 mph93%30.60 "Hg1 mi
2:50 am27 °FLight freezing rain. Low clouds.7 mph100%30.60 "Hg1 mi
2:20 am27 °FLight freezing rain. Low clouds.7 mph100%30.63 "Hg1 mi
1:50 am27 °FLight freezing rain. Low clouds.7 mph100%30.60 "Hg1 mi
1:20 am28 °FLight freezing rain. Low clouds.7 mph93%30.63 "Hg2 mi
12:50 am28 °FLight freezing rain. Partly cloudy.5 mph93%30.60 "Hg2 mi
12:20 am27 °FLight freezing rain. Partly cloudy.3 mph100%30.60 "Hg2 mi
11:50 pm
Wed, Dec 7
27 °FLight freezing rain. Passing clouds.3 mph93%30.60 "Hg2 mi
11:20 pm27 °FLight freezing rain. Passing clouds.7 mph100%30.60 "Hg2 mi
10:50 pm27 °FLight freezing rain. Passing clouds.7 mph93%30.60 "Hg3 mi
10:20 pm28 °FLight freezing rain. Passing clouds.5 mph93%30.60 "Hg3 mi
9:50 pm28 °FLight freezing rain. Passing clouds.6 mph93%30.60 "Hg3 mi
9:20 pm30 °FPassing clouds.8 mph93%30.60 "Hg4 mi
8:50 pm30 °FPassing clouds.9 mph93%30.60 "Hg4 mi
8:20 pm30 °FPassing clouds.12 mph93%30.60 "Hg4 mi
7:50 pm30 °FPassing clouds.9 mph93%30.60 "Hg4 mi
7:20 pm30 °FPassing clouds.10 mph93%30.60 "Hg4 mi
6:50 pm32 °FPassing clouds.10 mph87%30.60 "Hg5 mi
6:20 pm32 °FPassing clouds.10 mph87%30.60 "Hg5 mi
5:50 pm32 °FPassing clouds.10 mph87%30.63 "Hg6 mi
5:20 pm34 °FClear.10 mph81%30.63 "Hg10 mi
4:50 pm34 °FClear.9 mph81%30.63 "Hg10 mi
4:20 pm34 °FClear.8 mph81%30.63 "Hg10 mi
3:50 pm34 °FSunny.9 mph81%30.63 "Hg10 mi
3:20 pm34 °FSunny.8 mph81%30.63 "Hg10 mi
Weather by CustomWeather, © 2016

See weather overviewHow to use our weather pages